www.pogodaiklimat.ru

Погода и климат >> Архив погоды >> Индия >> Андхра-Прадеш >> Неллуру


ПОГОДА в Неллуру

  • Прогноз погоды в Неллуру
  • Монитор погоды в Неллуру

АРХИВ ПОГОДЫ в Неллуру

Время (UTC), дата Ветер
(напр.,м/с)
 
Видим.   Явления Облачность Т
(С)
Тd
(С)
f
(%)
Тe
(С)
Тes
(С)
Комфортность P
(гПа)
Po
(гПа)
Тmin
(С)
Tmax
(С)
R
(мм)
R24
(мм)
S
(см)
03 16.09 СЗ 1 10 км 3/1 600 м
[Sc diur, vesp Ci fib]
+30.2 +24.1 70 +42 +49 опасность
перегрева
1007.4 1004.8 +26.6 +35.4
06 16.09 СВ 3 10 км 4/3 600 м
[Sc diur, vesp Ci fib]
+34.4 +24.4 56 +47 +59 опасность
перегрева
1006.1 1003.5
09 16.09 З 3 10 км 5/3 600 м
[Cu Sc Ac trans Ci fib]
+36.2 +24.3 51 +49 +56 опасность
перегрева
1002.6 1000.0
12 16.09 СЗ 1 10 км {дождь} 5/3 600 м
[Sc diur, vesp Ac trans Ci fib]
+30.0 +25.7 78 +45 +45 опасность
перегрева
1003.0 1000.4 +36.5 0.4
15 16.09 ЮЗ 3 4000 м 8/3 600 м
[Sc diur, vesp Ac trans Ci fib]
+29.4 +25.1 78 +43 +43 опасность
перегрева
1005.7 1003.1 0.4
18 16.09 СВ 2 4000 м 8/4 600 м
[Sc diur, vesp Ac trans Ci fib]
+28.2 +24.4 80 +40 +40 очень
душно
1005.7 1003.1 0.4
21 16.09 штиль 0 4000 м слаб. морось 9/4 600 м
[Sc Ac As]
+28.0 +25.4 86 +41 +41 опасность
перегрева
1004.1 1001.5 0.4
00 17.09 З 3 4000 м 9/3 600 м
[Sc Ac As Cs]
+27.0 +24.1 84 +37 +37 очень
душно
1004.9 1002.3 0.4
03 17.09 СЗ 2 10 км слаб. морось {дождь} 10/5 600 м
[Sc Ac As]
+26.0 +24.5 91 +36 +37 очень
душно
1006.7 1004.1 +25.8 +36.5 4
06 17.09 СЗ 1 10 км дождь 10/5 600 м
[Sc Ac As]
+25.4 +24.8 96 +36 +39 очень
душно
1006.5 1003.9 7
09 17.09 З 3 10 км {дождь, морось} 10/4 600 м
[Sc Ac As]
+27.0 +25.0 89 +39 +41 очень
душно
1004.2 1001.6 8
12 17.09 З 3 10 км {дождь} 10/4 600 м
[Sc diur, vesp Ac As Cs]
+28.0 +25.4 86 +41 +41 опасность
перегрева
1003.5 1000.9 +28.2 8
15 17.09 штиль 0 4000 м 6/3 600 м
[Sc diur, vesp Cs]
+27.0 +24.1 84 +37 +37 очень
душно
1005.9 1003.3 8
18 17.09 штиль 0 4000 м 6/3 600 м
[Sc diur, vesp Cs]
+27.0 +24.1 84 +37 +37 очень
душно
1006.0 1003.4 8
21 17.09 штиль 0 4000 м {дождь} 9/4 600 м
[Sc diur, vesp Ac trans Cs]
+26.0 +24.2 90 +36 +36 очень
душно
1004.1 1001.5 10
00 18.09 штиль 0 4000 м {дождь} 9/4 600 м
[Sc diur, vesp Ac trans Cs]
+26.0 +24.2 90 +36 +36 очень
душно
1004.9 1002.3 10
03 18.09 ЮЗ 3 10 км 8/5 600 м
[Sc Ci sp]
+29.2 +26.6 86 +45 +48 опасность
перегрева
1006.9 1004.3 +25.6 +28.2 10
06 18.09 ЮЗ 2 10 км 8/4 600 м
[Cu Sc Ac As Ci fib]
+32.4 +26.2 70 +49 +57 опасность
перегрева
1006.7 1004.1
09 18.09 З 1 10 км 10/3 600 м
[Sc Ac As Ci fib]
+32.0 +26.1 71 +48 +53 опасность
перегрева
1003.8 1001.2
15 18.09 ЮВ 1 4000 м 6/6 600 м
[Cu Sc]
+28.6 +25.7 84 +42 +42 опасность
перегрева
1006.4 1003.8
18 18.09 штиль 0 4000 м 5/3 600 м
[Sc Ac trans]
+28.2 +25.9 87 +42 +42 опасность
перегрева
1006.6 1004.0
21 18.09 ЮВ 1 4000 м 5/3 600 м
[Sc Ac As]
+27.6 +25.9 90 +41 +41 опасность
перегрева
1005.3 1002.7
00 19.09 штиль 0 4000 м дождь 9/4 600 м
[Sc Ac As]
+25.8 +24.9 95 +37 +37 очень
душно
1005.9 1003.3 3
03 19.09 штиль 0 10 км слаб. морось {дождь} 10/5 600 м
[Sc Ac As]
+26.6 +25.1 91 +38 +40 очень
душно
1009.3 1006.7 +25.4 +33.0 5
06 19.09 штиль 0 10 км {морось} 10/4 600 м
[Sc Ac As]
+27.8 +25.5 87 +41 +46 опасность
перегрева
1007.7 1005.1 0.0
09 19.09 З 2 10 км 9/4 600 м
[Sc diur, vesp Ac As Cs]
+29.0 +26.1 84 +44 +49 опасность
перегрева
1005.0 1002.4 0.0
12 19.09 штиль 0 10 км 9/4 600 м
[Sc diur, vesp Ac As Cs]
+29.0 +24.7 78 +41 +42 опасность
перегрева
1005.0 1002.4 +29.3 0.0
15 19.09 ЮВ 2 4000 м 9/4 600 м
[Sc diur, vesp Ac As Cs]
+28.0 +26.0 89 +42 +42 опасность
перегрева
1007.2 1004.6 0.0
18 19.09 ЮВ 2 4000 м 9/4 600 м
[Sc diur, vesp Ac As Cs]
+27.8 +24.9 84 +40 +40 очень
душно
1007.8 1005.2 0.0
21 19.09 ЮВ 3 4000 м гроза, ливневой дождь 10/4 600 м
[Cb cap As op Cs]
+23.6 +23.6 100 +32 +32 очень
душно
1007.7 1005.0 61
00 20.09 штиль 0 4000 м слаб. морось {гроза, дождь} 10/4 600 м
[Cu Sc Ac As Cs]
+24.4 +24.1 98 +34 +34 очень
душно
1007.0 1004.3 75
03 20.09 штиль 0 10 км {морось} 8/3 600 м
[Cu Sc Ac trans Cs]
+25.4 +24.8 96 +36 +40 очень
душно
1009.8 1007.2 +23.6 +29.3 75
06 20.09 штиль 0 10 км {морось} 5/3 600 м
[Sc diur, vesp Ac trans Ci fib]
+28.4 +24.9 81 +41 +57 опасность
перегрева
1008.9 1006.3
09 20.09 СЗ 1 10 км 6/4 600 м
[Sc Ac trans Cs]
+31.4 +25.7 72 +46 +54 опасность
перегрева
1005.3 1002.7
12 20.09 З 2 10 км 8/3 600 м
[Sc Ac trans Cs]
+31.2 +25.2 70 +45 +45 опасность
перегрева
1005.0 1002.4 +32.5
15 20.09 ЮВ 1 4000 м 8/3 600 м
[Sc Ac trans Cs]
+29.0 +26.1 84 +44 +44 опасность
перегрева
1007.2 1004.6
18 20.09 ЮВ 2 4000 м 5/3 600 м
[Sc Ac trans Ci fib]
+27.8 +24.3 81 +39 +39 очень
душно
1007.7 1005.1
21 20.09 ЮВ 1 4000 м 6/3 600 м
[Sc Ac trans Ci fib]
+27.2 +25.7 92 +40 +40 очень
душно
1006.7 1004.1
00 21.09 Ю 1 4000 м 8/3 600 м
[Sc Ac trans Ci fib]
+27.0 +25.5 92 +40 +40 очень
душно
1006.9 1004.3
03 21.09 ЮВ 3 10 км 5/4 600 м
[Sc Ci sp]
+31.4 +26.0 73 +47 +50 опасность
перегрева
1008.2 1005.6 +26.5 +32.5 34
06 21.09 Ю 2 10 км 6/4 600 м
[Sc Ac As]
+32.8 +25.8 67 +48 +57 опасность
перегрева
1007.0 1004.4
09 21.09 С 3 10 км 4/3 600 м
[Sc Ci sp]
+32.4 +25.6 67 +47 +55 опасность
перегрева
1004.1 1001.5
12 21.09 Ю 3 10 км 5/3 600 м
[Sc diur, vesp Ac trans Cs]
+28.8 +24.5 78 +41 +41 опасность
перегрева
1004.4 1001.8 +34.0
15 21.09 ЮВ 2 4000 м 3/1 600 м
[Sc Ac trans]
+28.2 +25.0 83 +41 +41 опасность
перегрева
1007.3 1004.7
18 21.09 штиль 0 4000 м 6/4 600 м
[Sc Ac trans]
+27.8 +25.2 86 +40 +40 очень
душно
1007.9 1005.3
21 21.09 штиль 0 4000 м 6/4 600 м
[Sc Ac trans]
+27.4 +25.4 89 +40 +40 очень
душно
1006.3 1003.7
00 22.09 З 2 4000 м 9/4 600 м
[Sc Ac trans]
+27.0 +25.5 92 +40 +40 очень
душно
1007.0 1004.4
03 22.09 СЗ 2 10 км 10/3 600 м
[Sc Ac As Cs]
+28.4 +26.1 87 +43 +45 опасность
перегрева
1009.0 1006.4 +26.6 +34.0
09 22.09 ЮВ 1 10 км 3/1 600 м
[Cu Sc Ci fib]
+33.0 +26.0 67 +49 +63 опасность
перегрева
1004.9 1002.3
12 22.09 В 2 10 км 8/3 600 м
[Cu Sc Ac As Cs]
+30.8 +26.3 77 +47 +47 опасность
перегрева
1005.6 1003.0 +33.5
15 22.09 штиль 0 4000 м 5/3 600 м
[Cu Sc Cs]
+29.0 +26.4 86 +44 +44 опасность
перегрева
1008.6 1006.0
18 22.09 СЗ 1 4000 м 4/1 600 м
[Cu Sc Cs]
+27.2 +24.0 83 +38 +38 очень
душно
1008.9 1006.3
21 22.09 штиль 0 4000 м 4/4 600 м
[Sc]
+26.4 +24.3 88 +37 +37 очень
душно
1007.2 1004.6
00 23.09 СЗ 1 4000 м 4/1 600 м
[Sc Cs]
+26.2 +24.4 90 +37 +37 очень
душно
1007.5 1004.9

 

Местоположение метеостанции Неллуру (Андхра-Прадеш, Индия): широта 14.45 долгота 79.98 высота над уровнем моря 20 м.

В архиве по умолчанию представлена погода в Неллуру за последнюю неделю. Архивные данные за месяц целиком и за предыдущие месяцы, начиная с января 2011 года, Вы можете получить, выбрав интересующий диапазон дат из раскрывающегося списка и нажав кнопку "Ввод!".


*Определитесь, кто Вы:
робот инопланетянин человек

Внимание! Время в таблицах - всемирное. Для получения местного времени необходимо прибавить поправку, которая равна 5.5 ч.

Смотрите также архив погоды в соседних городах и на ближайших метеорологических станциях:

Погода в Кавали (Андхра-Прадеш, Индия) (50 км)
Погода в Тирупати (Андхра-Прадеш, Индия) (97 км)
Погода в Онголе (Андхра-Прадеш, Индия) (115 км)
Погода в Терутани (Тамилнад, Индия) (153 км)
Погода в Ченнаи (Тамилнад, Индия) (155 км)
Погода в Ченнаи (Тамилнад, Индия) (163 км)
Погода в Бапатле (Андхра-Прадеш, Индия) (170 км)
Погода в Маданапалле (Андхра-Прадеш, Индия) (190 км)
Погода в Веллоре (Тамилнад, Индия) (192 км)
Погода в Мачилипатнаме (Андхра-Прадеш, Индия) (232 км)

Пояснения к столбцам:

Ветер - указаны скорость ветра в м/с - средняя за 10 мин, порывы в срок и между сроками (в фигурных скобках) и направление, откуда дует ветер: С - северный, СВ - северо-восточный, В - восточный, ЮВ - юго-восточный, Ю - южный, ЮЗ - юго-западный, З - западный, СЗ - северо-западный.
Видимость - горизонтальная дальность видимости в метрах или километрах. При видимости от 1 до 10 км при отсутствии осадков обычно наблюдается дымка, при ухудшении видимости до 1 км и менее - туман. В сухую погоду видимость может ухудшаться дымом, пылью или мглою.
Явления - указаны атмосферные явления, наблюдавшиеся в срок или в последний час перед сроком; фигурными скобками обозначены явления, наблюдавшиеся между сроками (за 1-3 часа до срока); квадратными скобками обозначены град или гололедные отложения с указанием их диаметра в мм.
Облачность - указаны через наклонную черту общая и нижняя облачность в баллах и высота нижней границы облаков в метрах; квадратными скобками обозначены формы облаков: Ci - перистые, Cs - перисто-слоистые, Cc - перисто-кучевые, Ac - высококучевые, As - высокослоистые, Sc - слоисто-кучевые, Ns - слоисто-дождевые, Cu - кучевые, Cb - кучево-дождевые. Подробнее классификацию облаков см. в Атласе облаков (PDF).
T - Температура воздуха - температура, измеренная на высоте 2 м над землей.
Td - Температура точки росы - температура, при понижении до которой содержащийся в воздухе водяной пар достигнет насыщения.
f - Относительная влажность воздуха - влажноcть воздуха, измеренная на высоте 2 м над землей.
Te - Эффективная температура - температура, которую ощущает одетый по сезону человек в тени. Характеристика душности погоды. При расчете учитывается влияние влажности воздуха и скорости ветра на теплоощущения человека.
Tes - Эффективная температура на солнце - температура, которую ощущает человек, с поправкой на солнечный нагрев. Характеристика знойности погоды. Зависит от высоты солнца над горизонтом, облачности и скорости ветра. Ночью, в пасмурную погоду, а также при ветре 12 м/с и более поправка равна нулю.
P - Атмосферное давление - приведенное к уровню моря атмосферное давление.
Po - Атмосферное давление - измеренное на уровне метеостанции атмосферное давление.
Tmin - Минимальная температура - минимум температуры воздуха на высоте 2 м над землей.
Tmax - Максимальная температура - максимум температуры воздуха на высоте 2 м над землей.
R - Количество осадков - Количество выпавших осадков за период времени, мм. При наведении курсора мыши на число - период времени, за который выпало указанное количество осадков.
R24 - Количество осадков - Количество выпавших осадков за 24 часа, мм.
S - Снежный покров - Высота снежного покрова, см. При наведении курсора мыши на число - состояние снежного покрова и степень покрытия местности в баллах.